STARLINK-34283, 64214

Orbit data source: Space-Track

STARLINK-34283, 64214 is a payload satellite owned by SpaceX/Seattle (US) in LEO that was launched on Thu, 05 Jun 2025 UTC via an FALCON 9 launch vehicle from the Air Force Western Test Range (AFWTR). Payload-class satellites include a variety of spacecraft equipped with specific instruments for various scientific and technological missions. These include communications satellites like Starlink; space stations such as the ISS; scientific satellites like the Hubble; Earth observation satellites from companies like Planet Labs, Umbra, and HawkEye 360; GPS; miniature CubeSats for education and research; and military/defense satellites.

Loading next visibility...
Identifier
64214, 2025-117M
Orbit
LEO
Last TLE update
3 hours ago
Origin
Manufacturer
SpaceX/Seattle
Mission
Operational spacecraft
Bus & Motor
STARLINK V2MO, Unknown motor
Mass
575 kg wet, ~530 kg dry
Launch date (UTC)
2025-06-05 (2 weeks ago)
Launch vehicle
FALCON 9
Launch site
Air Force Western Test Range (AFWTR)
Object type
Payload
Rocket body
Debris
Shape & HBR
Unknown
Radar Cross Section
Large (>1 m²)

Expand to show TLE details & history

TLE from 3 hours ago
0 STARLINK-34283
1 64214U 25117M   25170.16670139 -.01555348  00000-0 -15409-1 0  9994
2 64214  53.1602 189.2425 0001167  85.1898 159.7591 15.68069579  3074
Epoch: 2025-06-19T04:00Z
TLE epoch observation values (Epoch: 2025-06-19T04:00:03Z)
Latitude
-46.66195°
Longitude
93.73149°
Altitude
381.058 km
Speed
7.681 km/s
True Right ascension
04h 05m 31s
True Declination
-46° 28' 50"
Sunlit
Object was in daylight at epoch
Visualization orbit readout
Latitude
-50.28847°
Longitude
157.16518°
Altitude
383.797 km
Speed
7.679 km/s
Apparent Right ascension
07h 07m 46s
Apparent Declination
-46° 18' 49"
Sunlit
Object is in daylight
Visualization observer readout
Local Sidereal Time
18:04:50
Azimuth
235.644° WSW
Elevation
-76.887°
Doppler factor
1
Orbital elements
Apogee altitude
365.472 km
Perigee altitude
363.899 km
Semi-major axis
6,742.823 km
Eccentricity
0.00012
Inclination
53.1602°
RAAN
189.2425°
Arg. of periapsis
85.1898°
True anomaly
Unknown
Mean anomaly
159.7591°
Eccentric anomaly
Unknown
Mean motion
3.91995 °/min
Orbital period
91.84 mins
BSTAR
-0.015409
Loading maneuver chart data...
Loading SW <> Apogee altitude chart data...
Loading historical data...
Loading historical data...
Loading historical data...
Loading historical data...
Loading historical data...
Loading historical data...
Loading historical data...

STARLINK-34283 Visibility forecast

Observer location: undefined°, undefined°

Span
Click to sort rows by Start time (UTC) header in descending order
Start Az.
Max El. time (UTC)
Max El. Az.
Max El.
End time (UTC)
End Az.
4 mins2025-06-19 11:07:13.969Z306.914° NW2025-06-19 11:09:13.969Z176.727° S44.321°2025-06-19 11:11:13.969Z134.953° SE
4 mins2025-06-20 03:39:13.969Z201.37° SSW2025-06-20 03:40:13.969Z160.122° S38.276°2025-06-20 03:43:13.969Z58.987° ENE
|